Regional Weather Roundup
Issued by NWS

Home | Current Version | Previous Version | Text Only | Print | Product List | Glossary On
Versions: 1 2 3 4 5 6 7 8 9 10 11 12 13 14 15 16 17 18 19 20 21 22 23 24 25 26 27 28 29 30 31 32 33 34 35 36 37 38 39 40 41 42 43 44 45 46 47 48 49 50
000
ASUS43 KLSX 202107
RWRMO

WEATHER SUMMARY FOR MISSOURI
NATIONAL WEATHER SERVICE SPRINGFIELD MO
400 PM CDT WED AUG 20 2014

NOTE: "FAIR" INDICATES FEW OR NO CLOUDS BELOW 12,000 FEET WITH NO
       SIGNIFICANT WEATHER AND/OR OBSTRUCTIONS TO VISIBILITY.
       CURRENT SKY AND/OR WEATHER CONDITIONS ARE NOT AVAILABLE FOR
       CHILLICOTHE AND FARMINGTON.

MOZ001>031-035>038-043-044-053-054-202200-
...NORTHERN AND WESTERN MISSOURI...

CITY           SKY/WX    TMP DP  RH WIND       PRES   REMARKS
KANSAS CTY INT MOSUNNY   92  72  51 S13       29.85F HX  99
KANSAS C DTWN  MOSUNNY   93  68  43 S18       29.84F HX  97
LEE`S SUMMIT   PTSUNNY   90  70  51 S7G18     29.87F HX  95
ST JOSEPH      SUNNY     91  73  55 S14       29.83F HX  99
CHILLICOTHE      N/A     88  75  65 S9        29.88F HX  97
KIRKSVILLE     MOSUNNY   86  73  65 SE9       29.93F HX  93

$$
MOZ066>068-077>081-088>096-101>105-202200-
...SOUTHWEST MISSOURI...

CITY           SKY/WX    TMP DP  RH WIND       PRES   REMARKS
SPRINGFIELD    MOSUNNY   94  64  37 SW14      29.95F HX  95
JOPLIN         MOSUNNY   95  66  38 SW18G26   29.93F HX  98

$$
MOZ032>034-039>042-045>050-055>058-069>072-202200-
...CENTRAL MISSOURI...

CITY           SKY/WX    TMP DP  RH WIND       PRES   REMARKS
COLUMBIA       MOSUNNY   91  72  53 S8        29.92F HX  98
JEFFERSON CITY SUNNY     92  70  48 SE5       29.90F HX  97
ROLLA          MOSUNNY   90  69  50 S6        29.93F HX  94
SEDALIA        PTSUNNY   90  69  50 SW6       29.91F HX  94
WHITEMAN AFB   MOSUNNY   92  72  51 S10G18    29.88F HX  99
OSAGE BEACH    PTSUNNY   93  66  40 SW8       29.91F HX  96

$$
MOZ051-052-059>065-202200-
...EAST CENTRAL MISSOURI...

CITY           SKY/WX    TMP DP  RH WIND       PRES   REMARKS
ST LOUIS INTL  PTSUNNY   87  73  62 SE13      29.95F HX  94
SPIRIT OF STL  PTSUNNY   89  75  63 SE6       29.93F HX  99
ST CHARLES     PTSUNNY   84  73  69 E10       29.93F HX  90

$$
MOZ072>076-082>087-097>100-106>115-202200-
...SOUTH CENTRAL AND SOUTHEAST MISSOURI...

CITY           SKY/WX    TMP DP  RH WIND       PRES   REMARKS
CAPE GIRARDEAU MOSUNNY   91  77  63 SW7       29.95F HX 104
FARMINGTON     PTSUNNY   91  72  52 E6        29.97F HX  98
POPLAR BLUFF   MOSUNNY   94  70  45 S12       29.93F HX 100
WEST PLAINS    MOSUNNY   91  66  43 SW12      29.99F HX  93

$$


USA.gov is the U.S. government's official web portal to all federal, state and local government web resources and services.